RYR613K LEPA-LIMC

Flight info

Callsign RYR613K
Flight time 1h 48m
Altitude 34000
Route MEROS DCT LAPIT DCT CHELY N853 LUMAS DCT UNANA DCT STP DCT RAPED DCT PIGOS DCT EKSID DCT NOSTA DCT EGHIN DCT ANAKI/N0328F180 P860 DEVOX
Aircraft B738/M-SDE2E3FGHIRWXY/LB1

Departure

Time 2026-05-05 19:41
Airport Palma de Mallorca Airport (LEPA)

Arrival

Time 2026-05-05 21:29
Airport Milan Malpensa International Airport (LIMC)
Time Latitude Longitude Altitude Speed Heading
2026-05-05 18:47 39.54986 2.73390 37 ft 0 kts 164°
2026-05-05 19:29 39.55001 2.73384 36 ft 2 kts 158°
2026-05-05 19:29 39.55016 2.73374 35 ft 2 kts 146°
2026-05-05 19:29 39.55028 2.73360 36 ft 2 kts 118°
2026-05-05 19:29 39.55033 2.73339 34 ft 2 kts 95°
2026-05-05 19:30 39.55034 2.73323 36 ft 1 kts 90°
2026-05-05 19:30 39.55034 2.73319 35 ft 0 kts 91°
2026-05-05 19:33 39.55034 2.73326 36 ft 2 kts 91°
2026-05-05 19:34 39.55033 2.73358 36 ft 5 kts 90°
2026-05-05 19:34 39.55048 2.73417 37 ft 9 kts 61°
2026-05-05 19:34 39.55085 2.73500 37 ft 12 kts 59°
2026-05-05 19:35 39.55156 2.73650 37 ft 6 kts 58°
2026-05-05 19:35 39.55177 2.73694 37 ft 6 kts 64°
2026-05-05 19:35 39.55170 2.73743 37 ft 6 kts 117°
2026-05-05 19:35 39.55171 2.73792 35 ft 6 kts 65°
2026-05-05 19:36 39.55212 2.73819 37 ft 9 kts 345°
2026-05-05 19:36 39.55288 2.73763 36 ft 15 kts 328°
2026-05-05 19:36 39.55375 2.73693 37 ft 14 kts 328°
2026-05-05 19:36 39.55458 2.73627 37 ft 14 kts 328°
2026-05-05 19:37 39.55538 2.73563 37 ft 13 kts 328°
2026-05-05 19:37 39.55617 2.73507 37 ft 13 kts 343°
2026-05-05 19:37 39.55684 2.73558 37 ft 13 kts 62°
2026-05-05 19:37 39.55730 2.73661 37 ft 14 kts 59°
2026-05-05 19:38 39.55781 2.73770 37 ft 14 kts 59°
2026-05-05 19:38 39.55828 2.73871 37 ft 11 kts 58°
2026-05-05 19:38 39.55864 2.73946 35 ft 10 kts 58°
2026-05-05 19:38 39.55908 2.74037 37 ft 14 kts 58°
2026-05-05 19:39 39.55968 2.74164 36 ft 19 kts 58°
2026-05-05 19:39 39.56054 2.74280 37 ft 18 kts 29°
2026-05-05 19:39 39.56147 2.74340 37 ft 11 kts 27°
2026-05-05 19:39 39.56216 2.74327 37 ft 11 kts 316°
2026-05-05 19:40 39.56214 2.74239 36 ft 11 kts 242°
2026-05-05 19:40 39.56125 2.74050 37 ft 55 kts 238°
2026-05-05 19:40 39.55785 2.73331 37 ft 128 kts 239°
2026-05-05 19:40 39.55423 2.72579 59 ft 166 kts 237°
2026-05-05 19:41 39.54798 2.71292 914 ft 165 kts 237°
2026-05-05 19:41 39.54194 2.70039 1940 ft 163 kts 239°
2026-05-05 19:41 39.53600 2.68815 2762 ft 169 kts 239°
2026-05-05 19:41 39.52910 2.67397 3139 ft 200 kts 240°
2026-05-05 19:42 39.52159 2.65863 3740 ft 208 kts 239°
2026-05-05 19:42 39.51370 2.64260 4446 ft 213 kts 239°
2026-05-05 19:42 39.50571 2.62637 5271 ft 215 kts 239°
2026-05-05 19:42 39.49658 2.61050 6005 ft 230 kts 223°
2026-05-05 19:43 39.48205 2.59869 6311 ft 261 kts 212°
2026-05-05 19:43 39.46568 2.58798 6987 ft 274 kts 200°
2026-05-05 19:43 39.44638 2.58722 7879 ft 284 kts 169°
2026-05-05 19:43 39.42844 2.59829 8819 ft 293 kts 144°
2026-05-05 19:44 39.41508 2.61872 9666 ft 304 kts 120°
2026-05-05 19:44 39.40850 2.64531 10379 ft 318 kts 99°
2026-05-05 19:44 39.40735 2.67479 10635 ft 344 kts 90°
2026-05-05 19:44 39.40856 2.70634 11206 ft 356 kts 87°
2026-05-05 19:45 39.41036 2.73866 11975 ft 362 kts 88°
2026-05-05 19:45 39.41209 2.77101 12767 ft 366 kts 89°
2026-05-05 19:45 39.41363 2.80429 13535 ft 372 kts 90°
2026-05-05 19:45 39.41495 2.83804 14205 ft 379 kts 91°
2026-05-05 19:46 39.41615 2.87245 14871 ft 384 kts 91°
2026-05-05 19:46 39.41726 2.90711 15588 ft 388 kts 91°
2026-05-05 19:46 39.41832 2.94182 16268 ft 393 kts 91°
2026-05-05 19:46 39.41937 2.97735 16946 ft 398 kts 91°
2026-05-05 19:47 39.42043 3.01350 17618 ft 403 kts 91°
2026-05-05 19:47 39.42150 3.05014 18282 ft 409 kts 91°
2026-05-05 19:47 39.42272 3.08687 18686 ft 419 kts 90°
2026-05-05 19:47 39.42400 3.12494 19193 ft 425 kts 90°
2026-05-05 19:48 39.42509 3.16332 19819 ft 427 kts 91°
2026-05-05 19:48 39.42608 3.20197 20449 ft 430 kts 90°
2026-05-05 19:48 39.42989 3.24080 21002 ft 438 kts 79°
2026-05-05 19:48 39.43866 3.27846 21583 ft 442 kts 69°
2026-05-05 19:49 39.45221 3.31435 22148 ft 445 kts 59°
2026-05-05 19:49 39.46814 3.34910 22724 ft 448 kts 58°
2026-05-05 19:49 39.48430 3.38324 23244 ft 453 kts 57°
2026-05-05 19:49 39.50090 3.41818 23726 ft 456 kts 57°
2026-05-05 19:50 39.51751 3.45343 24174 ft 460 kts 58°
2026-05-05 19:50 39.54108 3.50414 24791 ft 464 kts 58°
2026-05-05 19:50 39.57443 3.57682 25616 ft 472 kts 59°
2026-05-05 19:50 39.60809 3.65064 26413 ft 479 kts 59°
2026-05-05 19:51 39.64216 3.72553 27180 ft 486 kts 59°
2026-05-05 19:51 39.67641 3.80091 27920 ft 493 kts 59°
2026-05-05 19:51 39.72269 3.86515 28614 ft 490 kts 28°
2026-05-05 19:51 39.78531 3.89759 29365 ft 483 kts 10°
2026-05-05 19:52 39.85091 3.92130 29969 ft 491 kts
2026-05-05 19:52 39.91704 3.94578 30543 ft 496 kts 10°
2026-05-05 19:52 39.98268 3.97094 31348 ft 494 kts 11°
2026-05-05 19:52 40.04849 3.99651 32144 ft 493 kts 11°
2026-05-05 19:53 40.11417 4.02204 32800 ft 494 kts 11°
2026-05-05 19:53 40.18011 4.04770 33531 ft 493 kts 11°
2026-05-05 19:53 40.24612 4.07340 33966 ft 498 kts 11°
2026-05-05 19:54 40.38094 4.12604 33909 ft 505 kts 11°
2026-05-05 19:54 40.51240 4.17777 33887 ft 487 kts 10°
2026-05-05 19:55 40.64286 4.22902 33920 ft 492 kts 11°
2026-05-05 19:55 40.77626 4.28174 33914 ft 505 kts 11°
2026-05-05 19:56 40.91003 4.33498 33880 ft 500 kts 11°
2026-05-05 19:56 41.04165 4.38753 33897 ft 491 kts 11°
2026-05-05 19:57 41.17364 4.44031 33916 ft 500 kts 11°
2026-05-05 19:57 41.27225 4.47995 33915 ft 507 kts 11°
2026-05-05 19:58 41.33980 4.50725 33887 ft 501 kts 11°
2026-05-05 19:58 41.40562 4.53584 33891 ft 504 kts 19°
2026-05-05 19:59 41.46565 4.58550 33899 ft 512 kts 37°
2026-05-05 19:59 41.51996 4.64693 33898 ft 513 kts 39°
2026-05-05 20:00 41.57429 4.70922 33899 ft 513 kts 38°
2026-05-05 20:00 41.62858 4.77060 33899 ft 514 kts 38°
2026-05-05 20:01 41.68347 4.83218 33902 ft 515 kts 38°
2026-05-05 20:01 41.73819 4.89360 33893 ft 515 kts 38°
2026-05-05 20:02 41.79321 4.95553 33899 ft 516 kts 38°
2026-05-05 20:02 41.84794 5.01734 33897 ft 516 kts 38°
2026-05-05 20:03 41.90269 5.07933 33889 ft 517 kts 38°
2026-05-05 20:03 41.95770 5.14174 33895 ft 517 kts 38°
2026-05-05 20:04 42.01279 5.20441 33895 ft 517 kts 38°
2026-05-05 20:04 42.06746 5.26673 33897 ft 517 kts 38°
2026-05-05 20:05 42.12211 5.32918 33898 ft 517 kts 38°
2026-05-05 20:05 42.17709 5.39215 33894 ft 517 kts 38°
2026-05-05 20:06 42.23200 5.45519 33897 ft 517 kts 38°
2026-05-05 20:06 42.28656 5.51798 33898 ft 517 kts 39°
2026-05-05 20:07 42.34143 5.58127 33900 ft 517 kts 39°
2026-05-05 20:07 42.39586 5.64421 33899 ft 517 kts 39°
2026-05-05 20:08 42.45066 5.70772 33901 ft 517 kts 39°
2026-05-05 20:08 42.50508 5.77095 33905 ft 517 kts 39°
2026-05-05 20:09 42.55999 5.83489 33902 ft 518 kts 39°
2026-05-05 20:09 42.61437 5.89839 33907 ft 518 kts 39°
2026-05-05 20:10 42.66889 5.96218 33914 ft 519 kts 39°
2026-05-05 20:10 42.72376 6.02655 33918 ft 519 kts 39°
2026-05-05 20:11 42.77831 6.09070 33925 ft 520 kts 40°
2026-05-05 20:11 42.83320 6.15540 33934 ft 521 kts 40°
2026-05-05 20:12 42.88831 6.21992 33933 ft 521 kts 39°
2026-05-05 20:12 42.94331 6.28291 33934 ft 522 kts 39°
2026-05-05 20:13 42.99938 6.34722 33938 ft 522 kts 39°
2026-05-05 20:13 43.05462 6.41101 33938 ft 522 kts 39°
2026-05-05 20:14 43.11022 6.47546 33940 ft 522 kts 39°
2026-05-05 20:14 43.16579 6.54001 33938 ft 522 kts 39°
2026-05-05 20:15 43.21992 6.60543 33934 ft 523 kts 46°
2026-05-05 20:15 43.26454 6.68436 33943 ft 520 kts 57°
2026-05-05 20:16 43.30584 6.76527 33934 ft 520 kts 57°
2026-05-05 20:16 43.34806 6.84586 33939 ft 520 kts 56°
2026-05-05 20:17 43.39055 6.92629 33936 ft 519 kts 56°
2026-05-05 20:17 43.43255 7.00643 33938 ft 519 kts 56°
2026-05-05 20:18 43.47467 7.08712 33941 ft 519 kts 56°
2026-05-05 20:18 43.51685 7.16814 33939 ft 519 kts 56°
2026-05-05 20:19 43.55877 7.24882 33941 ft 519 kts 56°
2026-05-05 20:19 43.60062 7.32961 33937 ft 519 kts 56°
2026-05-05 20:20 43.64270 7.41100 33940 ft 519 kts 56°
2026-05-05 20:20 43.68451 7.49198 33939 ft 518 kts 56°
2026-05-05 20:20 43.70544 7.53261 33526 ft 513 kts 56°
2026-05-05 20:21 43.72577 7.57212 33016 ft 510 kts 56°
2026-05-05 20:21 43.74648 7.61244 32342 ft 512 kts 56°
2026-05-05 20:21 43.76709 7.65268 31787 ft 511 kts 56°
2026-05-05 20:21 43.78748 7.69276 31389 ft 506 kts 56°
2026-05-05 20:22 43.80766 7.73255 31034 ft 501 kts 56°
2026-05-05 20:22 43.82734 7.77135 30664 ft 496 kts 56°
2026-05-05 20:22 43.84718 7.81022 30250 ft 493 kts 56°
2026-05-05 20:22 43.86696 7.84885 29786 ft 489 kts 56°
2026-05-05 20:23 43.88677 7.88754 29334 ft 484 kts 56°
2026-05-05 20:23 43.90618 7.92551 28920 ft 479 kts 56°
2026-05-05 20:23 43.92503 7.96247 28548 ft 472 kts 56°
2026-05-05 20:23 43.94378 7.99930 28488 ft 459 kts 56°
2026-05-05 20:24 43.95594 8.02322 28428 ft 451 kts 56°
2026-05-05 20:24 43.97377 8.05835 28343 ft 440 kts 56°
2026-05-05 20:24 43.99121 8.09276 28255 ft 428 kts 56°
2026-05-05 20:24 44.01351 8.13682 28156 ft 413 kts 56°
2026-05-05 20:25 44.02978 8.16899 28083 ft 402 kts 56°
2026-05-05 20:25 44.06021 8.23179 27881 ft 379 kts 68°
2026-05-05 20:25 44.06736 8.25387 27742 ft 373 kts 72°
2026-05-05 20:26 44.07691 8.28739 27440 ft 370 kts 73°
2026-05-05 20:26 44.08604 8.32089 27107 ft 368 kts 73°
2026-05-05 20:26 44.09505 8.35380 26792 ft 366 kts 73°
2026-05-05 20:26 44.10420 8.38668 26513 ft 363 kts 73°
2026-05-05 20:27 44.11113 8.41123 26309 ft 361 kts 73°
2026-05-05 20:27 44.12054 8.44426 26017 ft 358 kts 72°
2026-05-05 20:27 44.12963 8.47604 25740 ft 356 kts 72°
2026-05-05 20:27 44.13878 8.50795 25465 ft 353 kts 72°
2026-05-05 20:28 44.14785 8.53962 25200 ft 351 kts 72°
2026-05-05 20:28 44.15689 8.57120 24935 ft 348 kts 73°
2026-05-05 20:28 44.16584 8.60251 24668 ft 346 kts 73°
2026-05-05 20:28 44.17470 8.63355 24394 ft 343 kts 73°
2026-05-05 20:29 44.18351 8.66443 24139 ft 341 kts 73°
2026-05-05 20:29 44.19385 8.69370 23847 ft 344 kts 54°
2026-05-05 20:29 44.21145 8.71606 23534 ft 343 kts 27°
2026-05-05 20:29 44.23339 8.72747 23218 ft 334 kts
2026-05-05 20:30 44.25640 8.72976 22897 ft 328 kts 356°
2026-05-05 20:30 44.27895 8.73060 22570 ft 326 kts 355°
2026-05-05 20:30 44.30191 8.73120 22253 ft 325 kts 355°
2026-05-05 20:30 44.32427 8.73182 21966 ft 323 kts 355°
2026-05-05 20:31 44.34088 8.73234 21758 ft 322 kts 356°
2026-05-05 20:31 44.36290 8.73310 21457 ft 320 kts 356°
2026-05-05 20:31 44.38517 8.73394 21170 ft 318 kts 356°
2026-05-05 20:31 44.40724 8.73482 20891 ft 316 kts 356°
2026-05-05 20:32 44.42931 8.73572 20613 ft 315 kts 356°
2026-05-05 20:32 44.45087 8.73661 20358 ft 313 kts 356°
2026-05-05 20:32 44.47256 8.73753 20094 ft 310 kts 356°
2026-05-05 20:32 44.49422 8.73843 19830 ft 309 kts 356°
2026-05-05 20:33 44.51570 8.73934 19570 ft 308 kts 356°
2026-05-05 20:33 44.53715 8.74025 19314 ft 307 kts 356°
2026-05-05 20:33 44.55843 8.74116 19072 ft 305 kts 356°
2026-05-05 20:33 44.57935 8.74204 18769 ft 304 kts 356°
2026-05-05 20:34 44.60046 8.74294 18535 ft 302 kts 356°
2026-05-05 20:34 44.62141 8.74383 18306 ft 300 kts 356°
2026-05-05 20:34 44.64222 8.74472 18028 ft 298 kts 356°
2026-05-05 20:34 44.66290 8.74560 17755 ft 296 kts 356°
2026-05-05 20:35 44.68352 8.74648 17495 ft 294 kts 356°
2026-05-05 20:35 44.70366 8.74653 17126 ft 291 kts 345°
2026-05-05 20:35 44.72176 8.73689 17013 ft 268 kts 318°
2026-05-05 20:35 44.73492 8.71897 16979 ft 260 kts 297°
2026-05-05 20:36 44.74338 8.69644 16972 ft 261 kts 281°
2026-05-05 20:36 44.74586 8.67196 16969 ft 251 kts 260°
2026-05-05 20:36 44.74100 8.64907 16977 ft 235 kts 239°
2026-05-05 20:36 44.73189 8.63070 16964 ft 228 kts 227°
2026-05-05 20:37 44.72020 8.61609 16965 ft 229 kts 212°
2026-05-05 20:37 44.70570 8.60632 16981 ft 232 kts 205°
2026-05-05 20:37 44.69047 8.59803 16966 ft 235 kts 204°
2026-05-05 20:37 44.67520 8.58992 16971 ft 236 kts 204°
2026-05-05 20:38 44.65972 8.58167 16977 ft 237 kts 204°
2026-05-05 20:38 44.64375 8.57506 16948 ft 243 kts 188°
2026-05-05 20:38 44.62672 8.57692 16966 ft 250 kts 172°
2026-05-05 20:38 44.61071 8.58651 16970 ft 260 kts 153°
2026-05-05 20:39 44.59724 8.60427 16954 ft 272 kts 132°
2026-05-05 20:39 44.58922 8.62877 16963 ft 284 kts 108°
2026-05-05 20:39 44.58897 8.65689 16959 ft 294 kts 80°
2026-05-05 20:39 44.59734 8.68274 16969 ft 298 kts 51°
2026-05-05 20:40 44.61290 8.70189 16971 ft 296 kts 26°
2026-05-05 20:40 44.63179 8.71345 16990 ft 295 kts 17°
2026-05-05 20:40 44.65112 8.72341 16981 ft 297 kts 17°
2026-05-05 20:40 44.67068 8.73358 16970 ft 299 kts 17°
2026-05-05 20:41 44.68997 8.74383 16969 ft 300 kts 18°
2026-05-05 20:41 44.70994 8.75155 16946 ft 295 kts 356°
2026-05-05 20:41 44.72953 8.74718 16977 ft 280 kts 330°
2026-05-05 20:41 44.74525 8.73248 16976 ft 266 kts 305°
2026-05-05 20:42 44.75515 8.71136 16968 ft 254 kts 284°
2026-05-05 20:42 44.75874 8.68770 16971 ft 244 kts 265°
2026-05-05 20:42 44.75625 8.66459 16973 ft 237 kts 246°
2026-05-05 20:42 44.74847 8.64424 16975 ft 235 kts 232°
2026-05-05 20:43 44.73737 8.62803 16966 ft 235 kts 217°
2026-05-05 20:43 44.72270 8.61765 16982 ft 235 kts 205°
2026-05-05 20:43 44.70738 8.60925 16970 ft 236 kts 204°
2026-05-05 20:43 44.69198 8.60097 16971 ft 237 kts 204°
2026-05-05 20:44 44.67662 8.59271 16967 ft 237 kts 204°
2026-05-05 20:44 44.66115 8.58439 16964 ft 237 kts 204°
2026-05-05 20:44 44.64595 8.57621 16968 ft 236 kts 204°
2026-05-05 20:44 44.63189 8.56489 16952 ft 232 kts 227°
2026-05-05 20:45 44.61905 8.52391 16971 ft 236 kts 262°
2026-05-05 20:45 44.62082 8.50073 16971 ft 244 kts 282°
2026-05-05 20:45 44.62895 8.47926 16962 ft 257 kts 303°
2026-05-05 20:46 44.64316 8.46316 16974 ft 271 kts 327°
2026-05-05 20:46 44.66136 8.45587 16962 ft 285 kts 353°
2026-05-05 20:46 44.68129 8.45716 16955 ft 287 kts 360°
2026-05-05 20:46 44.70120 8.45980 16751 ft 288 kts
2026-05-05 20:47 44.72119 8.46270 16452 ft 288 kts
2026-05-05 20:47 44.74121 8.46562 16151 ft 287 kts
2026-05-05 20:47 44.76082 8.46843 15902 ft 285 kts
2026-05-05 20:47 44.78047 8.47120 15657 ft 283 kts
2026-05-05 20:48 44.80012 8.47393 15408 ft 281 kts
2026-05-05 20:48 44.81958 8.47660 15176 ft 279 kts
2026-05-05 20:48 44.83885 8.47923 14927 ft 278 kts
2026-05-05 20:48 44.85810 8.48184 14685 ft 276 kts
2026-05-05 20:49 44.87689 8.48438 14452 ft 274 kts
2026-05-05 20:49 44.89611 8.48698 14216 ft 272 kts
2026-05-05 20:49 44.91473 8.48949 13983 ft 271 kts
2026-05-05 20:49 44.93343 8.49202 13756 ft 269 kts
2026-05-05 20:50 44.95204 8.49453 13492 ft 267 kts
2026-05-05 20:50 44.97040 8.49701 13228 ft 266 kts
2026-05-05 20:50 44.98880 8.49949 12981 ft 265 kts
2026-05-05 20:50 45.00720 8.50198 12728 ft 263 kts
2026-05-05 20:51 45.02541 8.50444 12469 ft 262 kts
2026-05-05 20:51 45.04351 8.50689 12203 ft 261 kts
2026-05-05 20:51 45.06123 8.50929 11972 ft 260 kts
2026-05-05 20:51 45.07922 8.51173 11768 ft 258 kts
2026-05-05 20:52 45.09698 8.51414 11597 ft 258 kts
2026-05-05 20:52 45.11498 8.51659 11407 ft 257 kts
2026-05-05 20:52 45.13290 8.51902 11201 ft 256 kts
2026-05-05 20:52 45.15044 8.52140 10980 ft 255 kts
2026-05-05 20:53 45.16807 8.52379 10737 ft 253 kts
2026-05-05 20:53 45.18563 8.52618 10499 ft 252 kts
2026-05-05 20:53 45.20311 8.52856 10263 ft 251 kts
2026-05-05 20:53 45.22045 8.53001 10014 ft 249 kts 351°
2026-05-05 20:54 45.23627 8.52139 9715 ft 242 kts 319°
2026-05-05 20:54 45.24650 8.50310 9463 ft 235 kts 289°
2026-05-05 20:54 45.24924 8.48099 9202 ft 229 kts 262°
2026-05-05 20:54 45.24449 8.45972 9036 ft 226 kts 236°
2026-05-05 20:55 45.23392 8.44331 9005 ft 229 kts 214°
2026-05-05 20:55 45.21935 8.43484 8982 ft 227 kts 187°
2026-05-05 20:55 45.20358 8.43562 8990 ft 226 kts 172°
2026-05-05 20:55 45.18828 8.43983 8988 ft 227 kts 170°
2026-05-05 20:56 45.17275 8.44444 8989 ft 228 kts 170°
2026-05-05 20:56 45.15719 8.44894 8980 ft 228 kts 170°
2026-05-05 20:56 45.14167 8.45333 8976 ft 228 kts 171°
2026-05-05 20:56 45.12634 8.45899 8967 ft 230 kts 155°
2026-05-05 20:57 45.11406 8.47354 8977 ft 233 kts 128°
2026-05-05 20:57 45.10771 8.49470 9007 ft 241 kts 101°
2026-05-05 20:57 45.10900 8.51872 8966 ft 251 kts 71°
2026-05-05 20:57 45.11875 8.53910 8952 ft 252 kts 38°
2026-05-05 20:58 45.13439 8.54901 8954 ft 245 kts
2026-05-05 20:58 45.15116 8.54810 8993 ft 238 kts 348°
2026-05-05 20:58 45.16727 8.54366 8993 ft 240 kts 346°
2026-05-05 20:58 45.18372 8.53878 9000 ft 244 kts 346°
2026-05-05 20:59 45.20049 8.53394 8997 ft 245 kts 347°
2026-05-05 20:59 45.21717 8.52888 8981 ft 243 kts 339°
2026-05-05 20:59 45.23098 8.51625 8992 ft 234 kts 307°
2026-05-05 20:59 45.23799 8.49641 8987 ft 226 kts 277°
2026-05-05 21:00 45.23751 8.47437 8999 ft 226 kts 251°
2026-05-05 21:00 45.22977 8.45508 8995 ft 226 kts 224°
2026-05-05 21:00 45.21645 8.44316 8815 ft 232 kts 197°
2026-05-05 21:00 45.20040 8.44099 8560 ft 234 kts 175°
2026-05-05 21:01 45.18432 8.44482 8321 ft 234 kts 170°
2026-05-05 21:01 45.16847 8.44948 8156 ft 229 kts 169°
2026-05-05 21:01 45.15325 8.45392 8067 ft 222 kts 170°
2026-05-05 21:01 45.13831 8.45817 8001 ft 218 kts 170°
2026-05-05 21:02 45.12429 8.46560 7981 ft 219 kts 145°
2026-05-05 21:02 45.11396 8.48190 7981 ft 228 kts 119°
2026-05-05 21:02 45.10983 8.50396 7983 ft 238 kts 91°
2026-05-05 21:02 45.11388 8.52676 7996 ft 244 kts 60°
2026-05-05 21:03 45.12582 8.54383 7959 ft 246 kts 27°
2026-05-05 21:03 45.14197 8.54926 7976 ft 240 kts 357°
2026-05-05 21:03 45.15834 8.54628 7976 ft 236 kts 347°
2026-05-05 21:03 45.17422 8.54164 7976 ft 233 kts 346°
2026-05-05 21:04 45.19021 8.53692 7999 ft 236 kts 347°
2026-05-05 21:04 45.20644 8.53227 8008 ft 240 kts 347°
2026-05-05 21:04 45.22243 8.52585 7967 ft 238 kts 327°
2026-05-05 21:04 45.23383 8.50991 7997 ft 228 kts 295°
2026-05-05 21:05 45.23728 8.49595 7985 ft 224 kts 275°
2026-05-05 21:05 45.23390 8.46810 7992 ft 218 kts 238°
2026-05-05 21:05 45.22769 8.45692 7992 ft 217 kts 220°
2026-05-05 21:05 45.20969 8.44544 7991 ft 218 kts 186°
2026-05-05 21:06 45.19442 8.44670 8003 ft 221 kts 171°
2026-05-05 21:06 45.17930 8.45086 7994 ft 225 kts 170°
2026-05-05 21:06 45.16391 8.45533 7993 ft 227 kts 170°
2026-05-05 21:06 45.15340 8.45835 7994 ft 228 kts 170°
2026-05-05 21:07 45.13792 8.46274 7998 ft 229 kts 169°
2026-05-05 21:07 45.12364 8.47194 7973 ft 231 kts 140°
2026-05-05 21:07 45.11447 8.49069 7954 ft 234 kts 110°
2026-05-05 21:07 45.11314 8.51326 7980 ft 234 kts 80°
2026-05-05 21:08 45.12014 8.53402 7995 ft 237 kts 48°
2026-05-05 21:08 45.13348 8.54671 7923 ft 241 kts 15°
2026-05-05 21:08 45.15026 8.54816 7890 ft 243 kts 352°
2026-05-05 21:08 45.16701 8.54413 7715 ft 244 kts 347°
2026-05-05 21:09 45.18350 8.53920 7561 ft 240 kts 346°
2026-05-05 21:09 45.19978 8.53432 7418 ft 235 kts 347°
2026-05-05 21:09 45.21561 8.52967 7286 ft 234 kts 347°
2026-05-05 21:09 45.23160 8.52509 7156 ft 234 kts 347°
2026-05-05 21:10 45.24770 8.52056 7025 ft 234 kts 348°
2026-05-05 21:10 45.26355 8.51614 6880 ft 235 kts 348°
2026-05-05 21:10 45.27982 8.51161 6745 ft 236 kts 348°
2026-05-05 21:10 45.29550 8.50726 6625 ft 243 kts 348°
2026-05-05 21:11 45.31250 8.50703 6449 ft 251 kts 17°
2026-05-05 21:11 45.32724 8.51979 6315 ft 253 kts 51°
2026-05-05 21:11 45.33473 8.54192 6163 ft 249 kts 79°
2026-05-05 21:11 45.33796 8.56578 6049 ft 245 kts 81°
2026-05-05 21:12 45.34106 8.58956 6003 ft 243 kts 81°
2026-05-05 21:12 45.34420 8.61324 5991 ft 242 kts 81°
2026-05-05 21:12 45.34444 8.63654 5982 ft 236 kts 108°
2026-05-05 21:12 45.33643 8.65620 5974 ft 224 kts 140°
2026-05-05 21:13 45.32360 8.66762 5992 ft 217 kts 162°
2026-05-05 21:13 45.30909 8.67282 5999 ft 215 kts 170°
2026-05-05 21:13 45.29443 8.67669 6000 ft 216 kts 171°
2026-05-05 21:13 45.27957 8.68057 5999 ft 216 kts 170°
2026-05-05 21:14 45.26472 8.68447 5997 ft 216 kts 170°
2026-05-05 21:14 45.24992 8.68840 5993 ft 217 kts 170°
2026-05-05 21:14 45.23519 8.69238 5997 ft 217 kts 170°
2026-05-05 21:14 45.22036 8.69642 5995 ft 217 kts 170°
2026-05-05 21:15 45.20546 8.70049 5991 ft 218 kts 170°
2026-05-05 21:15 45.19058 8.70456 5969 ft 218 kts 170°
2026-05-05 21:15 45.17567 8.70864 5981 ft 218 kts 170°
2026-05-05 21:15 45.16086 8.71271 5971 ft 219 kts 170°
2026-05-05 21:16 45.14587 8.71683 5973 ft 220 kts 170°
2026-05-05 21:16 45.13267 8.72045 5986 ft 222 kts 170°
2026-05-05 21:16 45.12311 8.72307 5989 ft 223 kts 170°
2026-05-05 21:16 45.11127 8.72632 5958 ft 221 kts 170°
2026-05-05 21:17 45.09938 8.72958 5945 ft 216 kts 170°
2026-05-05 21:17 45.08477 8.73399 5924 ft 212 kts 162°
2026-05-05 21:17 45.07280 8.74599 5676 ft 216 kts 128°
2026-05-05 21:17 45.06759 8.76603 5337 ft 224 kts 94°
2026-05-05 21:18 45.07134 8.78719 5146 ft 226 kts 59°
2026-05-05 21:18 45.08293 8.80209 5021 ft 229 kts 24°
2026-05-05 21:18 45.09800 8.80898 4915 ft 233 kts 14°
2026-05-05 21:18 45.11389 8.81462 4784 ft 232 kts 13°
2026-05-05 21:19 45.12946 8.82001 4684 ft 228 kts 13°
2026-05-05 21:19 45.14471 8.82523 4591 ft 224 kts 13°
2026-05-05 21:19 45.15998 8.83044 4519 ft 225 kts 13°
2026-05-05 21:19 45.17525 8.83564 4475 ft 227 kts 13°
2026-05-05 21:20 45.19049 8.84081 4426 ft 228 kts 13°
2026-05-05 21:20 45.20553 8.84444 4364 ft 229 kts 358°
2026-05-05 21:20 45.22138 8.84250 4332 ft 229 kts 354°
2026-05-05 21:20 45.23714 8.83997 4281 ft 231 kts 352°
2026-05-05 21:21 45.25307 8.83653 4251 ft 230 kts 350°
2026-05-05 21:21 45.26876 8.83259 4186 ft 227 kts 349°
2026-05-05 21:21 45.28421 8.82849 4071 ft 225 kts 349°
2026-05-05 21:21 45.29934 8.82439 4010 ft 224 kts 348°
2026-05-05 21:22 45.31463 8.82021 3996 ft 223 kts 349°
2026-05-05 21:22 45.32967 8.81610 3983 ft 222 kts 348°
2026-05-05 21:22 45.34467 8.81200 4001 ft 212 kts 349°
2026-05-05 21:22 45.35863 8.80818 3979 ft 196 kts 349°
2026-05-05 21:23 45.37172 8.80460 3991 ft 187 kts 349°
2026-05-05 21:23 45.38220 8.80172 3999 ft 186 kts 349°
2026-05-05 21:23 45.39499 8.79822 3994 ft 187 kts 349°
2026-05-05 21:23 45.40776 8.79471 3995 ft 187 kts 349°
2026-05-05 21:24 45.42046 8.79123 4002 ft 189 kts 349°
2026-05-05 21:24 45.43348 8.78766 4015 ft 192 kts 349°
2026-05-05 21:24 45.44664 8.78406 4022 ft 192 kts 349°
2026-05-05 21:24 45.45975 8.78053 3918 ft 195 kts 349°
2026-05-05 21:25 45.47116 8.77751 3666 ft 205 kts 349°
2026-05-05 21:25 45.48539 8.77364 3377 ft 209 kts 349°
2026-05-05 21:25 45.49972 8.76969 3089 ft 208 kts 350°
2026-05-05 21:25 45.51321 8.76594 2810 ft 203 kts 350°
2026-05-05 21:26 45.52688 8.76214 2542 ft 196 kts 350°
2026-05-05 21:26 45.53795 8.75907 2323 ft 188 kts 350°
2026-05-05 21:26 45.55056 8.75557 2085 ft 181 kts 350°
2026-05-05 21:26 45.56100 8.75268 1872 ft 173 kts 350°
2026-05-05 21:27 45.57222 8.74956 1652 ft 156 kts 350°
2026-05-05 21:27 45.58240 8.74674 1435 ft 147 kts 350°
2026-05-05 21:27 45.59244 8.74396 1227 ft 147 kts 349°
2026-05-05 21:27 45.59840 8.74231 1103 ft 148 kts 349°
2026-05-05 21:28 45.60905 8.73934 921 ft 145 kts 349°
2026-05-05 21:28 45.61909 8.73657 751 ft 149 kts 349°
2026-05-05 21:28 45.62650 8.73450 739 ft 101 kts 351°
2026-05-05 21:28 45.63304 8.73271 740 ft 84 kts 349°
2026-05-05 21:29 45.63681 8.73123 739 ft 44 kts 328°
2026-05-05 21:29 45.63857 8.72838 740 ft 34 kts 303°
2026-05-05 21:29 45.63928 8.72642 740 ft 20 kts 265°
2026-05-05 21:29 45.63821 8.72601 740 ft 17 kts 169°